OPS 4682 DEB, 15530

Orbit data source: Space-Track

OPS 4682 DEB, 15530 is space debris in LEO originally from a launch on Sat, 03 Apr 1965 UTC launched from the Air Force Western Test Range (AFWTR). Debris objects in space refer to the collection of defunct objects orbiting the Earth. Examples of debris include non-operational satellites, rocket bodies, and fragments generated from explosions, collisions, or faulty payload assembly.

Loading next visibility...
Identifier
15530, 1965-027T
Orbit
LEO
Country
Flag of USUS
Related business
Manufacturer
Unknown
Mission
Spacecraft
Bus & Motor
Unknown
Mass
Unknown
Launch date (UTC)
1965-04-03 (61 years ago)
Launch vehicle
Unknown
Launch site
Air Force Western Test Range (AFWTR)
Object type
Payload
Rocket body
Debris
Shape & HBR
Unknown shape, 0.1 m
Radar Cross Section
Small (<0.1 m²)

Expand to show TLE details & history
Last TLE update: 7 hours ago

TLE from 7 hours ago
0 OPS 4682 DEB
1 15530U 65027T   26105.26042397  .00000433  00000-0  14375-2 0  9993
2 15530  90.2875  30.9612 0030224 190.4593 323.0162 12.98674711 49488
Epoch: 2026-04-15T06:15Z
TLE epoch observation values (Epoch: 2026-04-15T06:15:00.631Z)
Latitude
26.76621°
Longitude
-86.07202°
Altitude
1,252.109 km
Speed
7.24 km/s
True Right ascension
14h 04m 25s
True Declination
26° 38' 14"
Sunlit
Object was in full shadow at epoch
Visualization orbit readout
Latitude
Unknown
Longitude
Unknown
Altitude
Unknown
Speed
Unknown
Apparent Right ascension
Unknown
Apparent Declination
Unknown
Sunlit
N/A
Visualization observer readout
Local Sidereal Time
19:52:53
Azimuth
Unknown
Elevation
Unknown
Doppler factor
Unknown
Orbital elements
Apogee altitude
1,287.511 km
Perigee altitude
1,241.314 km
Semi-major axis
7,642.55 km
Eccentricity
0.00302
Inclination
90.2875°
RAAN
30.9612°
Arg. of periapsis
190.4593°
True anomaly
322.80721°
Mean anomaly
323.0162°
Eccentric anomaly
322.91177°
Mean motion
3.24852 °/min
Orbital period
110.82 mins
BSTAR
0.0014375
Loading maneuver chart data...
Computing Atmospheric mass density...
Loading historical data...
Loading historical data...
Loading historical data...
Loading historical data...
Loading historical data...
Loading historical data...
Loading historical data...

Documentation

Showing up to 5 results
|